Location: Port Stanley
(42.6641°N, 81.2156°W)
Time: 19:00:30
(UTC-04:00)

ISS - Pass Details

Date: 05 July 2019
Orbit: 409 x 418 km, 51.6° (Epoch: 23 July)

Event Time Altitude Azimuth Distance (km) Brightness Sun altitude
Exits shadow 02:44:54 17° 95° (E) 1,133 -1.5 -22.3°
Drops below altitude 10° 02:46:02 10° 80° (E) 1,476 -0.6 -22.2°
Sets 02:48:21 0° 66° (ENE) 2,340 0.7 -22.0°
